Flag for U.S.A. Weather past 2 weeks in Fairbanks, Alaska, U.S.A.

Now
10 °F

Partly cloudy.


Feels Like: 10 °F
Forecast: 11 / 33 °F
Wind: No wind

Location: Wainwright U. S. Army Airfield

Current Time: Feb 26, 2015 at 9:16:46 PM

Latest Report: Feb 26, 2015 at 7:55 PM


Visibility: 7 mi

Pressure: 30.55 "Hg

Humidity: 85%

Dew point: 7 °F

Location of FairbanksLocation

Historic Weather in Fairbanks — Graph

°F

Fairbanks temperature yesterday

Maximum temperature yesterday: 27 °F (at 1:56 AM)
Minimum temperature yesterday: 12 °F (at 11:56 PM)
Average temperature yesterday: 22 °F

Past Weeks' High & Low Weather Summary

 TemperatureHumidityPressure
High36 °F (Feb 22, 2:56 PM)100% (Feb 23, 7:55 AM)30.56 "Hg (Feb 23, 7:55 AM)
Low-17 °F (Feb 14, 7:56 AM)63% (Feb 21, 8:56 AM)29.54 "Hg (Feb 16, 9:56 PM)
Average15 °F83%30.06 "Hg
* Reported Feb 11 7:55 PM — Feb 26 7:55 PM, Fairbanks, Weather by CustomWeather, © 2015

Note: Actual official high and low records may vary slightly from our data, if they occured in-between our weather recording intervals... More about our weather records

Advertising

Fairbanks weather history for previous 24 hours

 ConditionsComfort  
Time TempWeatherWind HumidityBarometerVisibility
7:55 PM
Thu, Feb 26
10 °FPartly cloudy.No wind85%30.55 "Hg7 mi
6:55 PM16 °FPartly cloudy.No wind86%30.55 "Hg7 mi
5:55 PM18 °FBroken clouds.No wind86%30.55 "Hg7 mi
3:55 PM18 °FBroken clouds.5 mph79%30.56 "Hg13 mi
2:55 PM19 °FMostly cloudy.No wind79%30.56 "Hg13 mi
1:55 PM19 °FBroken clouds.No wind79%30.55 "Hg13 mi
12:55 PM18 °FBroken clouds.No wind79%30.56 "Hg13 mi
11:55 AM18 °FBroken clouds.No wind73%30.56 "Hg13 mi
10:55 AM12 °FBroken clouds.6 mph79%30.56 "Hg13 mi
9:55 AM12 °FMostly cloudy.5 mph79%30.56 "Hg13 mi
8:55 AM10 °FMostly cloudy.5 mph79%30.54 "Hg13 mi
7:55 AM12 °FMostly cloudy.5 mph73%30.55 "Hg13 mi
6:55 AM10 °FPassing clouds.No wind67%30.53 "Hg10 mi
5:56 AM9 °FPassing clouds.No wind73%30.53 "Hg10 mi
4:56 AM6 °FClear.No wind73%30.53 "Hg10 mi
3:56 AM4 °FClear.No wind73%30.53 "Hg10 mi
2:56 AM6 °FClear.3 mph76%30.53 "Hg7 mi
1:56 AM8 °FIce fog.No wind76%30.53 "Hg0 mi
12:56 AM10 °FIce fog.No wind76%30.53 "Hg0 mi
11:56 PM
Wed, Feb 25
12 °FIce fog.No wind77%30.53 "Hg0 mi
10:56 PM13 °FLow clouds.No wind77%30.54 "Hg1 mi
9:56 PM15 °FLow clouds.3 mph77%30.53 "Hg8 mi
Weather by CustomWeather, © 2015

See weather overviewHow to use our weather pages